Weather Roundup
Issued by NWS

Home | Current Version | Previous Version | Text Only | Print | Product List | Glossary On
Versions: 1 2 3 4 5 6 7 8 9 10 11 12 13 14 15 16 17 18 19 20 21 22 23 24 25 26 27 28 29 30 31 32 33 34 35 36 37 38 39 40 41 42 43 44 45 46 47 48 49 50
875
NZUS93 KARX 201159
HRRWXR

CURRENT HOURLY OBSERVATIONS ACROSS
MUCH OF THE UPPER MISSISSIPPI VALLEY
NATIONAL WEATHER SERVICE LA CROSSE WI
600 AM CST SAT JAN 20 2018


...SOUTHEAST MINNESOTA...


CITY           SKY/WX    TMP DP  RH WIND       PRES   REMARKS
ROCHESTER      FAIR      29  27  92 NW6       29.81R WCI  23
ROCHESTER/MAYO FAIR      31  29  94 CALM      29.81R
WINONA         FAIR      23  21  93 CALM      29.81R
AUSTIN         NOT AVBL
ALBERT LEA     FAIR      28  27  93 CALM      29.81R
DODGE CENTER   FAIR      28  27  93 NW3       29.81R
PRESTON        FAIR      29  27  92 N7        29.80R WCI  22
OWATONNA       FOG       25  23  93 CALM      29.81R VSB 1/4
FARIBAULT      FAIR      19  19 100 CALM      29.82R FOG
$$

...ELSEWHERE IN MINNESOTA...


CITY           SKY/WX    TMP DP  RH WIND       PRES   REMARKS
MINNEAPOLIS    MOCLDY    29  28  96 SW3       29.82R
INTNL FALLS    FAIR      31  26  82 W6        29.68R WCI  25
DULUTH         FAIR      29  27  92 NW6       29.72R WCI  23
RED WING       FAIR      21  19  93 CALM      29.82R
REDWOOD FALLS  CLOUDY    28  26  92 SW7       29.81R WCI  21
MANKATO        FAIR      28  27  96 W3        29.83R
WORTHINGTON    CLOUDY    28  25  88 CALM      29.81F
FAIRMONT       CLOUDY    31  28  89 CALM      29.82S
$$

...SOUTHWEST WISCONSIN...


CITY           SKY/WX    TMP DP  RH WIND       PRES   REMARKS
LA CROSSE      FOG       22  21  96 CALM      29.82R VSB 1/4
PRAIRIE DU CHI FAIR      28  26  91 CALM      29.82R
BOSCOBEL       FAIR      25  23  92 CALM      29.82R
LONE ROCK      NOT AVBL
PLATTEVILLE    FAIR      30  28  92 S5        29.83R WCI  25
FORT MC COY    FAIR      20  19  97 CALM      29.81R
CAMP DOUGLAS   FAIR      22  21  99 CALM      29.79R FOG
MAUSTON-NEW LI FAIR      24  22  94 CALM      29.78S FOG
VIROQUA        FAIR      31  31 100 SW3       29.78R
WIS DELLS      FAIR      32  28  84 SW6       29.80R WCI  26
$$

...ELSEWHERE IN WISCONSIN...


CITY           SKY/WX    TMP DP  RH WIND       PRES   REMARKS
MILWAUKEE      MOCLDY    36  28  73 SW3       29.81R
MADISON        MOCLDY    27  24  89 S3        29.82R
GREEN BAY      FAIR      31  25  78 S6        29.78R WCI  25
EAU CLAIRE     NOT AVBL
BLACK RVR FLS  FOG       22  22 100 CALM      29.79S VSB<1/4
MEDFORD        FAIR      26  25  95 CALM      29.75R
WAUSAU         FAIR      30  27  88 NW7       29.74R WCI  23
WIS RAPIDS     FAIR      24  20  84 SW3       29.80R
MARSHFIELD     FAIR      29  27  92 W5        29.76R WCI  24
RICE LAKE      FAIR      13  11  93 CALM      29.80R FOG
$$

...NORTHEAST IOWA...


CITY           SKY/WX    TMP DP  RH WIND       PRES   REMARKS
WATERLOO       FAIR      23  22  96 S3        29.82R
DUBUQUE        FAIR      25  22  88 SW3       29.83R
DECORAH        FAIR      32  30  93 CALM      29.80R
MASON CITY     CLOUDY    27  25  92 W5        29.83R WCI  22
CHARLES CITY   FAIR      28  28 100 NW6       29.81R FOG     WCI  22
OELWEIN        FAIR      27  27 100 S6        29.81R WCI  20
$$

...ELSEWHERE IN IOWA...


CITY           SKY/WX    TMP DP  RH WIND       PRES   REMARKS
DES MOINES     CLOUDY    31  26  82 SW3       29.83R
IOWA CITY      FAIR      26  21  81 CALM      29.86S
FORT DODGE     PTCLDY    24  21  88 CALM      29.83R
MARSHALLTOWN   CLOUDY    29  26  89 SW3       29.82R
CEDAR RAPIDS   FAIR      30  25  81 SW5       29.82S WCI  25
$$

...NORTHERN ILLINOIS...


CITY           SKY/WX    TMP DP  RH WIND       PRES   REMARKS
CHICAGO-OHARE  MOCLDY    35  26  69 SW8       29.85R WCI  29
CHICAGO-MIDWAY MOCLDY    35  28  75 SW8       29.87R WCI  29
MOLINE         FAIR      29  26  89 S3        29.86R
ROCKFORD       FAIR      34  27  75 SW3       29.87R
PEORIA         FAIR      30  25  81 S6        29.91R WCI  24
$$

NOTE: "FAIR" INDICATES FEW OR NO CLOUDS BELOW 12,000 FEET WITH NO
SIGNIFICANT WEATHER AND/OR OBSTRUCTIONS TO VISIBILITY. WIND
SPEEDS ARE IN MILES-PER-HOUR.




USA.gov is the U.S. government's official web portal to all federal, state and local government web resources and services.